Погода в Бутунтае

Россия / Забайкальский край     50°39′23″N   118°07′08″E
темп.,
°C
ветер,
м/с
пор.,
м/с
влажн.,
%
обл.,
%
осадки,
мм/ч
давл.,
гПа
погр.,
м
6 мая, чт
чт600:00+2сз22834 0.0 100118
03:00+1ссз228721 0.0 100323
06:000сз22844 0.0 100420
09:00+6с36545 0.0 10041080
12:00+10с453697 0.0 10022337
15:00+12с353298 0.0 10012518
18:00+11ссв453344 0.0 10012103
21:00+7ссв0043100 0.0 100210
7 мая, пт
пт700:00+5сз345373 0.0 1003101
03:00+4сз117382 0.0 100215
06:00+2сз118199 0.0 100110
09:00+6в3463100 0.4 1000697
12:00+4в4689100 1.3 1000548
15:00+8св4662100 2.5 9971274
18:00+9всв474992 0.7 9971602
21:00+5св5116255 1.3 1001451
8 мая, сб
сб800:00+3с4107017 0.0 1004363
03:00+1ссз36825 0.0 1006135
06:000ссз34850 0.0 100779
09:00+5с58461 0.0 10061067
12:00+9ссз6935100 0.0 10042655
15:00+10ссз5733100 0.0 10032482
18:00+9ссз563951 0.1 10031930
21:00+4с33646 0.1 100651
9 мая, вс
вс900:00+2сз227310 0.0 100720
03:00+1с327798 0.0 100737
06:00+1ссз237939 0.0 100741
09:00+6с354738 0.0 10061086
12:00+10с4531100 0.0 10042773
15:00+9ссз6636100 0.1 10052051
18:00+10ссз563471 0.0 10042061
21:00+5с355490 0.0 100788
10 мая, пн
пн1000:00+3ссз347098 0.0 100961
03:00+2ссз2274100 0.0 101039
06:00+2сз227590 0.0 101052
09:00+6с465370 0.0 10101313
12:00+8с4544100 0.2 10091907
15:00+9с554291 0.3 10091756
18:00+9ссв564699 0.3 10101589
21:00+5ссв226255 0.4 101232